This demonstration page uses our WeatherBlox Daily Observations layout. Learn more.

36.17497, -115.13722

Hourly Observations for September 30, 2018

Temp ( °F °C ) Dew Point ( °F °C ) Humidity (%) Winds ( mph kmh ) Pressure ( in mb ) Visibility ( mi km ) Precip ( " mm )
12:53 am 00:53 Clear 79 26.1 27 -2.8 15 15 ESE 8 13 29.8 1009 10 16.09344 0 0
1:53 am 01:53 Clear 80 26.7 29 -1.7 15 15 E 5 7 29.8 1009 10 16.09344 0 0
2:53 am 02:53 Clear 79 26.1 35 1.7 20 20 SE 8 13 29.8 1009 10 16.09344 0 0
3:53 am 03:53 Clear 78 25.6 36 2.2 22 22 Calm 29.8 1009 10 16.09344 0 0
4:53 am 04:53 Clear 78 25.6 38 3.3 24 24 Calm 29.8 1009 10 16.09344 0 0
5:53 am 05:53 Clear 76 24.4 45 7.2 33 33 SSW 8 13 29.8 1009 10 16.09344 0 0
6:53 am 06:53 Sunny 77 25 47 8.3 35 35 SW 9 15 29.83 1010 10 16.09344 0 0
7:53 am 07:53 Sunny 80 26.7 48 8.9 33 33 SW 9 15 29.83 1010 10 16.09344 0 0
8:53 am 08:53 Sunny 81 27.2 48 8.9 32 32 S 9 15 29.85 1011 10 16.09344 0 0
9:53 am 09:53 Sunny 85 29.4 48 8.9 28 28 SSE 8 13 29.83 1010 10 16.09344 0 0
10:19 am 10:19 Sunny 88 31.1 48 8.9 25 25 SSW 20 31 29.74 1007 10 16.09344 0 0
10:53 am 10:53 Sunny 89 31.7 48 8.9 24 24 SSW 17 28 29.83 1010 10 16.09344 0 0
11:53 am 11:53 Sunny 92 33.3 45 7.2 20 20 SSW 18 30 29.83 1010 10 16.09344 0 0
12:53 pm 12:53 Sunny 93 33.9 43 6.1 18 18 WSW 17 28 29.8 1009 10 16.09344 0 0
1:53 pm 13:53 Sunny 93 33.9 42 5.6 17 17 W 24 39 29.77 1008 10 16.09344 0 0
2:53 pm 14:53 Sunny 94 34.4 42 5.6 17 17 WSW 16 26 29.74 1007 10 16.09344 0 0
3:53 pm 15:53 Sunny 93 33.9 42 5.6 17 17 W 13 20 29.74 1007 10 16.09344 0 0
4:53 pm 16:53 Sunny 93 33.9 43 6.1 18 18 WSW 12 19 29.74 1007 10 16.09344 0 0
5:53 pm 17:53 Sunny 91 32.8 44 6.7 20 20 W 12 19 29.74 1007 10 16.09344 0 0
6:53 pm 18:53 Clear 89 31.7 45 7.2 22 22 WSW 10 17 29.74 1007 10 16.09344 0 0
7:53 pm 19:53 Partly Cloudy 85 29.4 54 12.2 35 35 S 25 41 29.77 1008 10 16.09344 0 0
8:00 pm 20:00 Mostly Cloudy 85 29.4 55 12.8 36 36 SSW 24 39 29.68 1005 10 16.09344 0 0
8:07 pm 20:07 Mostly Cloudy 84 28.9 55 12.8 37 37 SSW 20 31 29.68 1005 10 16.09344 0 0
8:53 pm 20:53 Mostly Clear 82 27.8 55 12.8 40 40 S 17 28 29.83 1010 10 16.09344 0 0
9:53 pm 21:53 Clear 82 27.8 53 11.7 37 37 S 12 19 29.83 1010 10 16.09344 0 0
10:53 pm 22:53 Clear 80 26.7 56 13.3 44 44 SSE 10 17 29.83 1010 10 16.09344 0 0
11:53 pm 23:53 Clear 80 26.7 58 14.4 47 47 SSE 13 20 29.83 1010 10 16.09344 0 0

Powered by AerisWeather